Location: Hurstbourne Priors
(51.2000°N, 1.3667°W)
Time: 09:27:29
(UTC+00:00)

STARLINK-1206 - Pass Details

Date: 09 April 2020
Orbit: 549 x 550 km, 53.0° (Epoch: 25 May)

Event Time Altitude Azimuth Distance (km) Brightness Sun altitude
Rises 19:45:04 0° 290° (WNW) 2,684 9.5 -8.6°
Reaches altitude 10° 19:47:23 10° 282° (WNW) 1,789 7.8 -8.9°
Maximum altitude 19:51:09 38° 214° (SW) 824 4.6 -9.5°
Enters shadow 19:54:51 10° 146° (SE) 1,756 5.7 -10.0°
